Ravenna, OH

5:21 PM EST on December 08, 2016 (GMT -0500)
Ravenna

Weather History for KPOV - June, 2014

Change the Weather History Date:

Saturday, June 7, 2014

  Actual Average (KCAK) Record (KCAK)
Temperature  
Mean Temperature 60 °F -  
Max Temperature 77 °F 77 °F 95 °F (1933)
Min Temperature 42 °F 57 °F 38 °F (1945)
Degree Days  
Heating Degree Days 6    
Growing Degree Days 10 (Base 50)    
Moisture  
Dew Point 48 °F    
Average Humidity 62    
Maximum Humidity 100    
Minimum Humidity 32    
Precipitation  
Precipitation 0.00 in - - ()
Sea Level Pressure  
Sea Level Pressure 30.02 in    
Wind  
Wind Speed 2 mph (East)    
Max Wind Speed 9 mph    
Max Gust Speed -    
Visibility 10 miles    
Events      
Averages and records for this station are not official NWS values.
T = Trace of Precipitation, MM = Missing Value Source: NWS Daily Summary

Daily Weather History Graph

Daily Weather History Graph

Search for Another Location

Airport or City:

Trip Planner

Search our weather history database for the weather conditions in past years. The results will help you decide how hot, cold, wet, or windy it might be!

Date:

Astronomy

Jun. 07, 2014 Rise Set
Actual Time 5:52 AM EDT 8:55 PM EDT
Civil Twilight 5:19 AM EDT 9:29 PM EDT
Nautical Twilight 4:36 AM EDT 10:11 PM EDT
Astronomical Twilight 3:46 AM EDT 11:02 PM EDT
Moon 3:08 PM EDT (6/7) 2:16 AM EDT (6/7)
Length of Visible Light 16h 10m
Length of Day
15h 03m
Waxing Gibbous, 67% of the Moon is Illuminated
Jun 7
Waxing Gibbous
Jun 13
Full
Jun 19
Last Quarter
Jun 27
New
Jul 5
First Quarter

Hourly Weather History & Observations

Time (EDT) Temp. Windchill Dew Point Humidity Pressure Visibility Wind Dir Wind Speed Gust Speed Precip Events Conditions
12:17 AM 49.6 °F - 43.7 °F 80% 30.06 in 10.0 mi Calm Calm - N/A   Clear
12:37 AM 48.9 °F - 44.2 °F 84% 30.06 in 10.0 mi Calm Calm - N/A   Clear
12:57 AM 49.5 °F - 43.9 °F 81% 30.05 in 10.0 mi Calm Calm - N/A   Clear
1:17 AM 47.5 °F - 44.6 °F 90% 30.05 in 10.0 mi Calm Calm - N/A   Clear
1:37 AM 48.2 °F - 47.1 °F 96% 30.05 in 10.0 mi Calm Calm - N/A   Clear
1:57 AM 46.8 °F - 46.9 °F 100% 30.04 in 10.0 mi Calm Calm - N/A   Clear
2:17 AM 46.4 °F - 46.4 °F 100% 30.04 in 10.0 mi Calm Calm - N/A   Clear
2:37 AM 47.3 °F - 47.5 °F 100% 30.04 in 10.0 mi Calm Calm - N/A   Clear
2:57 AM 47.5 °F - 45.1 °F 92% 30.04 in 10.0 mi Calm Calm - N/A   Clear
3:17 AM 47.1 °F - 46.9 °F 99% 30.04 in 10.0 mi Calm Calm - N/A   Clear
3:37 AM 47.8 °F - 43.7 °F 86% 30.04 in 10.0 mi Calm Calm - N/A   Clear
3:57 AM 45.9 °F 44.6 °F 42.1 °F 87% 30.04 in 10.0 mi ENE 3.5 mph - N/A   Clear
4:17 AM 44.6 °F - 44.6 °F 100% 30.05 in 10.0 mi Calm Calm - N/A   Clear
4:36 AM 45.7 °F - 45.9 °F 100% 30.05 in 10.0 mi Calm Calm - N/A   Clear
4:57 AM 43.9 °F - 44.1 °F 100% 30.06 in 10.0 mi Calm Calm - N/A   Clear
5:17 AM 43.0 °F - 43.0 °F 100% 30.06 in 10.0 mi Calm Calm - N/A   Clear
5:36 AM 42.4 °F - 42.8 °F 100% 30.06 in 10.0 mi Calm Calm - N/A   Clear
5:57 AM 43.0 °F - 43.2 °F 100% 30.05 in 10.0 mi Calm Calm - N/A   Clear
6:17 AM 44.4 °F - 44.6 °F 100% 30.05 in 10.0 mi Calm Calm - N/A   Clear
6:37 AM - - - N/A% 30.06 in 10.0 mi Calm Calm - N/A   Clear
6:57 AM 48.4 °F - 48.6 °F 100% 30.06 in 10.0 mi Calm Calm - N/A   Clear
7:17 AM 51.3 °F - 51.4 °F 100% 30.07 in 10.0 mi Calm Calm - N/A   Clear
7:37 AM 55.6 °F - 51.4 °F 86% 30.07 in 10.0 mi Calm Calm - N/A   Clear
8:17 AM 61.2 °F - 48.7 °F 64% 30.10 in 10.0 mi Calm Calm - N/A   Clear
9:17 AM 66.4 °F - 48.9 °F 53% 30.12 in 10.0 mi Calm Calm - N/A   Clear
9:36 AM 67.1 °F - 49.8 °F 54% 30.11 in 10.0 mi Calm Calm - N/A   Clear
10:17 AM 68.2 °F - 46.8 °F 46% 30.10 in 10.0 mi Calm Calm - N/A   Clear
10:36 AM 70.3 °F - 48.0 °F 45% 30.09 in 10.0 mi Calm Calm - N/A   Clear
10:57 AM 71.6 °F - 44.6 °F 38% 30.10 in 10.0 mi ESE 3.5 mph - N/A   Clear
11:17 AM 70.7 °F - 45.5 °F 40% 30.09 in 10.0 mi Calm Calm - N/A   Clear
11:36 AM 73.2 °F - 47.1 °F 39% 30.08 in 10.0 mi East 5.8 mph - N/A   Clear
11:57 AM 73.6 °F - 47.7 °F 40% 30.07 in 10.0 mi SE 9.2 mph - N/A   Clear
12:17 PM 74.5 °F - 46.0 °F 36% 30.07 in 10.0 mi ENE 8.1 mph - N/A   Clear
12:36 PM 74.3 °F - 45.9 °F 36% 30.07 in 10.0 mi East 6.9 mph - N/A   Clear
12:57 PM 75.6 °F - 47.8 °F 37% 30.06 in 10.0 mi ENE 5.8 mph - N/A   Clear
1:17 PM 74.3 °F - 47.7 °F 39% 30.05 in 10.0 mi SE 6.9 mph - N/A   Clear
1:37 PM 74.7 °F - 48.7 °F 40% 30.04 in 10.0 mi SSE 9.2 mph - N/A   Clear
1:56 PM 75.6 °F - 48.4 °F 38% 30.03 in 10.0 mi ESE 5.8 mph - N/A   Clear
2:17 PM 75.2 °F - 45.9 °F 35% 30.03 in 10.0 mi Calm Calm - N/A   Clear
2:36 PM 75.4 °F - 45.7 °F 35% 30.02 in 10.0 mi East 5.8 mph - N/A   Clear
2:57 PM 76.5 °F - 48.2 °F 37% 30.02 in 10.0 mi SSE 6.9 mph - N/A   Clear
3:17 PM 76.6 °F - 48.0 °F 36% 30.01 in 10.0 mi SE 4.6 mph - N/A   Clear
3:37 PM 76.1 °F - 47.8 °F 37% 30.01 in 10.0 mi South 3.5 mph - N/A   Clear
3:57 PM 77.2 °F - 48.6 °F 36% 30.01 in 10.0 mi ESE 4.6 mph - N/A   Clear
4:17 PM 77.4 °F - 49.3 °F 37% 30.00 in 10.0 mi Calm Calm - N/A   Clear
4:37 PM 77.2 °F - 46.6 °F 34% 30.00 in 10.0 mi SSW 3.5 mph - N/A   Clear
4:57 PM 77.4 °F - 47.5 °F 35% 29.99 in 10.0 mi ESE 4.6 mph - N/A   Clear
5:17 PM 77.4 °F - 45.9 °F 33% 29.98 in 10.0 mi Calm Calm - N/A   Clear
5:36 PM 77.0 °F - 47.5 °F 35% 29.98 in 10.0 mi Calm Calm - N/A   Clear
5:57 PM 77.7 °F - 45.3 °F 32% 29.98 in 10.0 mi East 3.5 mph - N/A   Clear
6:17 PM 76.3 °F - 46.8 °F 35% 29.98 in 10.0 mi East 8.1 mph - N/A   Clear
6:36 PM 76.1 °F - 47.3 °F 36% 29.98 in 10.0 mi SSE 3.5 mph - N/A   Clear
6:57 PM 75.9 °F - 48.6 °F 38% 29.97 in 10.0 mi Calm Calm - N/A   Clear
7:17 PM 74.7 °F - 51.4 °F 44% 29.97 in 10.0 mi Calm Calm - N/A   Clear
7:37 PM 74.8 °F - 51.4 °F 44% 29.97 in 10.0 mi East 4.6 mph - N/A   Clear
7:57 PM 74.1 °F - 50.5 °F 43% 29.96 in 10.0 mi East 3.5 mph - N/A   Clear
8:17 PM 71.4 °F - 52.5 °F 51% 29.96 in 10.0 mi East 3.5 mph - N/A   Clear
8:37 PM 69.3 °F - 52.5 °F 55% 29.96 in 10.0 mi Calm Calm - N/A   Clear
8:57 PM 67.1 °F - 52.7 °F 60% 29.96 in 10.0 mi Calm Calm - N/A   Clear
9:17 PM 64.0 °F - 53.2 °F 68% 29.95 in 10.0 mi ENE 3.5 mph - N/A   Clear
9:37 PM 64.2 °F - 53.4 °F 68% 29.96 in 10.0 mi Calm Calm - N/A   Clear
9:56 PM 64.9 °F - 51.4 °F 62% 29.96 in 10.0 mi Calm Calm - N/A   Clear
10:17 PM 59.2 °F - 52.7 °F 79% 29.96 in 10.0 mi NE 3.5 mph - N/A   Clear
10:37 PM 60.4 °F - 51.4 °F 72% 29.95 in 10.0 mi ENE 4.6 mph - N/A   Clear
10:56 PM 60.4 °F - 50.2 °F 69% 29.95 in 10.0 mi ENE 6.9 mph - N/A   Clear
11:17 PM 61.5 °F - 49.8 °F 65% 29.95 in 10.0 mi ENE 6.9 mph - N/A   Clear
11:37 PM 60.4 °F - 49.3 °F 67% 29.94 in 10.0 mi East 3.5 mph - N/A   Clear
11:57 PM 61.2 °F - 48.6 °F 63% 29.94 in 10.0 mi East 4.6 mph - N/A   Clear